Location: Seattle
(47.6064°N, 122.3308°W)
Time: 04:56:52
(UTC-08:00)

S-56A Canister/Altair - Pass Details

Date: 02 December 2020
Orbit: 633 x 2499 km, 38.9° (Epoch: 23 January)

Event Time Altitude Azimuth Distance (km) Brightness Sun altitude
Rises 00:12:55 0° 273° (W) 4,406 - -64.3°
Reaches altitude 10° 00:17:26 10° 256° (WSW) 3,040 - -64.2°
Maximum altitude 00:21:37 17° 219° (SW) 2,249 - -64.0°
Drops below altitude 10° 00:25:06 10° 181° (S) 2,425 - -63.9°
Sets 00:28:09 0° 159° (SSE) 3,155 - -63.8°
